Location: Newark
(50.4348°N, 30.5552°E)
Time: 23:06:27
(UTC+00:00)

Vanguard 2 - All Passes

Search period start: 19 January 2020 00:00
Search period end: 29 January 2020 00:00
Orbit: 553 x 2938 km, 32.9° (Epoch: 19 January)

Date Brightness Start Highest point End Pass type
(mag) Time Alt. Az. Time Alt. Az. Time Alt. Az.
19 Jan - 12:13:20 10° SSW 12:15:44 12° S 12:17:50 10° SSE daylight
20 Jan - 10:22:46 10° S 10:25:40 12° S 10:28:11 10° SSE daylight
20 Jan - 12:30:29 10° SSW 12:33:18 13° S 12:35:42 10° SSE daylight
21 Jan - 10:38:54 10° SSW 10:43:17 15° S 10:46:49 10° SE daylight
21 Jan - 12:48:00 10° SW 12:50:49 13° SSW 12:53:14 10° SSE daylight
22 Jan - 08:49:11 10° S 08:52:44 12° SSE 08:55:50 10° SE daylight
22 Jan - 10:55:42 10° SW 11:00:54 17° S 11:04:54 10° SE daylight
22 Jan - 13:05:51 10° SW 13:08:17 12° SSW 13:10:25 10° S daylight
23 Jan - 09:04:33 10° SSW 09:10:23 16° SSE 09:15:00 10° SE daylight
23 Jan - 11:12:52 10° SW 11:18:29 19° S 11:22:43 10° SE daylight
23 Jan - 13:24:16 10° SW 13:25:42 11° SSW 13:27:01 10° S daylight
24 Jan - 07:17:31 10° SSE 07:19:23 10° SSE 07:21:08 10° SE daylight
24 Jan - 09:20:52 10° SSW 09:28:01 19° S 09:33:23 10° SE daylight
24 Jan - 11:30:17 10° SW 11:36:01 19° S 11:40:19 10° SE daylight
25 Jan - 07:30:46 10° S 07:36:59 15° SSE 07:42:08 10° SE daylight
25 Jan - 09:37:40 10° SW 09:45:39 22° S 09:51:24 10° SE daylight
25 Jan - 11:47:54 10° SW 11:53:31 19° SSW 11:57:45 10° SSE daylight
26 Jan - 07:46:17 10° SSW 07:54:36 19° SSE 08:01:02 10° ESE daylight
26 Jan - 09:54:46 10° SW 10:03:15 24° S 10:09:13 10° SE daylight
26 Jan - 12:05:45 10° WSW 12:10:58 17° SSW 12:14:57 10° SSE daylight
27 Jan - 05:58:59 10° SSE 06:03:11 12° SSE 06:07:00 10° SE daylight
27 Jan - 08:02:32 10° SSW 08:12:13 23° SSE 08:19:22 10° ESE daylight
27 Jan - 10:12:07 10° SW 10:20:49 25° S 10:26:53 10° SE daylight
27 Jan - 12:23:51 10° WSW 12:28:19 15° SSW 12:31:53 10° S daylight
28 Jan - 06:12:42 10° S 06:20:42 16° SSE 06:27:25 10° ESE daylight
28 Jan - 08:19:14 10° SW 08:29:50 26° S 08:37:25 10° ESE daylight
28 Jan - 10:29:39 10° WSW 10:38:21 25° SSW 10:44:24 10° SE daylight
28 Jan - 12:42:25 10° SW 12:45:36 13° SSW 12:48:19 10° S daylight
